Temperature
21 21 21 21 18 18 19 20 21 22 22 22 21 20 19 19 19 18 18 18 18 18 18 18 18 18 18 18 18 18 18 18 18 18 18 18 18 18 18 18 18 18 18 18 18 18 18 18 18
21 21 21 20 18 18 20 20 21 22 22 22 21 21 19 19 18 18 18 18 18 18 18 18 18 18 18 18 18 18 18 18 18 18 18 18 18 18 18 18 18 18 18 18 18 18 18 18 18
21 21 21 18 18 19 20 21 21 23 23 23 21 20 19 19 18 18 18 18 18 18 18 18 18 18 18 18 18 18 18 18 18 17 17 17 18 18 17 17 18 18 18 18 18 18 17 17 17
21 21 20 18 19 19 20 21 22 22 22 22 21 19 19 19 19 18 18 18 18 18 18 18 18 18 18 18 18 18 18 18 17 17 17 17 17 17 17 17 17 17 17 17 17 17 17 17 17
21 21 18 18 20 20 20 21 22 22 22 21 20 19 18 19 19 18 18 18 18 18 18 18 18 18 18 17 17 17 17 17 17 17 17 17 17 17 17 17 17 17 17 17 17 17 17 17 17
21 19 18 18 20 21 21 22 22 21 21 21 20 18 18 19 19 18 18 18 18 18 18 18 18 18 17 17 17 17 17 17 17 17 17 17 17 17 17 17 17 17 17 17 17 17 17 17 17
20 18 18 19 20 20 21 22 22 21 21 21 20 18 18 18 19 18 18 18 18 18 18 18 17 17 17 17 17 17 17 17 17 17 17 17 17 17 17 17 17 17 17 17 17 17 17 17 17
22 18 19 19 20 21 22 22 22 22 21 21 21 18 18 18 18 18 18 18 18 18 18 17 17 17 17 17 17 17 17 17 17 17 17 17 16 17 17 16 17 16 16 16 16 16 16 17 17
22 18 18 19 20 21 22 22 22 22 21 21 20 20 20 19 18 18 18 18 18 18 18 17 17 17 17 17 17 17 17 16 16 16 16 16 16 16 16 16 16 16 16 16 16 16 16 16 16
21 17 19 20 20 20 21 22 22 21 20 20 20 20 19 19 19 18 18 18 18 18 17 17 17 17 17 17 17 17 16 16 16 16 16 16 16 16 16 16 16 16 16 16 16 16 16 16 16
20 19 20 21 22 22 21 21 22 20 19 19 19 19 19 19 19 18 18 18 18 18 17 17 17 17 17 17 17 17 16 16 16 16 16 16 16 16 16 16 16 16 16 16 16 16 16 16 16
20 20 21 22 22 22 21 21 21 21 20 21 20 20 19 19 19 18 18 18 18 18 18 17 17 17 17 17 17 17 16 16 16 16 16 16 16 16 16 16 16 16 16 16 16 16 16 16 16
20 20 22 22 22 22 22 21 21 20 21 20 20 19 19 19 19 19 18 18 18 18 18 17 17 17 17 17 17 16 16 16 16 16 16 16 16 16 16 16 16 15 16 16 16 16 16 16 16
21 21 22 22 22 22 21 21 20 20 20 20 19 19 19 19 19 18 18 18 18 18 18 17 17 17 17 17 17 16 16 16 16 16 16 16 16 16 16 15 15 15 15 15 15 15 15 15 15
22 21 21 21 22 22 21 20 19 20 20 19 19 19 19 19 19 18 18 18 18 18 18 18 17 17 17 17 17 16 16 16 16 16 16 16 16 16 15 15 15 15 15 15 15 15 15 15 15
21 20 19 20 21 21 20 19 19 20 20 19 19 18 19 19 19 19 18 18 18 18 18 18 17 17 17 17 17 16 16 16 16 16 16 16 16 16 15 15 15 15 15 15 15 15 15 15 15
19 18 19 20 21 21 20 19 19 20 19 18 18 18 18 18 18 19 19 18 18 18 18 18 17 17 17 17 17 16 16 16 16 16 16 16 16 15 15 15 15 15 15 15 15 15 15 15 15
18 19 19 19 20 20 19 19 19 20 19 19 18 18 18 18 18 18 18 18 18 18 18 18 17 17 17 17 16 16 16 16 16 16 16 15 15 15 15 15 15 15 15 14 14 14 14 14 14
20 19 19 20 21 20 19 19 18 19 19 18 18 18 18 18 18 18 18 18 18 18 18 17 17 17 17 16 16 16 16 16 16 16 15 15 15 15 15 15 15 15 14 14 14 14 14 14 14
20 19 19 20 21 20 19 18 18 18 18 18 18 18 18 18 18 18 18 18 18 18 18 17 17 17 16 16 16 16 16 16 15 15 15 15 15 15 15 15 15 15 14 14 14 14 14 14 14
20 19 19 19 20 20 19 18 18 18 19 18 18 18 18 18 18 18 18 18 18 17 17 17 17 17 16 16 16 16 15 15 15 15 15 15 15 15 15 15 15 14 14 14 14 14 14 14 14
19 20 20 20 18 17 18 17 17 17 17 17 17 18 18 18 18 18 18 18 17 17 17 17 17 16 16 16 16 16 15 15 15 15 15 15 15 15 15 14 14 14 14 14 14 14 14 14 14
20 20 20 19 18 17 17 17 16 17 17 17 17 17 18 18 18 18 18 18 17 17 17 17 16 16 16 16 16 15 15 15 15 15 15 15 15 14 14 14 14 14 14 14 14 14 14 14 13
20 19 18 16 16 16 17 17 16 16 17 17 17 17 18 17 17 17 17 17 17 17 17 16 16 16 16 16 15 15 15 15 15 15 15 14 14 14 14 14 14 14 14 14 14 14 14 13 13
19 17 16 16 15 16 17 17 16 17 18 18 17 17 17 17 17 17 17 17 17 17 16 16 16 16 16 15 15 15 15 15 15 15 14 14 14 14 14 14 14 14 14 14 14 14 13 13 13
19 17 16 16 15 15 17 16 17 18 18 18 18 18 17 17 17 17 17 17 17 16 16 16 16 16 15 15 15 15 15 15 15 14 14 14 14 14 14 14 14 14 14 14 13 13 13 13 13
19 17 16 15 16 15 15 16 18 18 17 17 17 17 17 17 17 17 17 17 16 16 16 16 16 16 15 15 15 15 15 15 14 14 14 14 14 14 14 14 14 14 13 13 13 13 13 13 13
19 18 15 15 16 15 16 16 16 17 16 16 16 16 17 17 17 16 16 16 16 16 16 16 15 15 15 15 15 15 14 14 14 14 14 14 14 13 13 13 13 13 13 13 13 13 13 13 13
18 18 16 15 15 15 15 15 17 16 16 16 16 16 17 17 17 16 16 16 16 16 15 15 15 15 15 15 14 14 14 14 14 14 14 14 13 13 13 13 13 13 13 13 13 13 13 13 12
18 17 16 15 15 14 14 15 17 16 16 16 16 17 17 17 16 16 16 16 15 15 15 15 15 15 14 14 14 14 14 14 14 14 13 13 13 13 13 13 13 13 13 13 13 13 13 12 12
Wind_Speed
1 1 3 3 5 5 2 1 1 3 4 5 8 10 8 6 4 5 2 7 9 5 5 7 9 10 11 11 12 12 14 14 14 14 14 13 13 13 13 13 13 13 13 13 13 13 13 14 14
0 1 3 4 5 3 1 1 3 4 6 7 8 8 7 6 5 6 4 8 9 7 6 8 10 10 11 12 13 13 14 14 14 14 14 13 13 13 13 13 13 13 13 13 13 12 13 13 13
0 1 3 4 3 3 3 2 3 3 5 5 5 6 5 5 4 4 6 10 9 7 7 9 10 11 12 13 13 13 14 14 14 14 14 14 13 13 13 13 13 13 13 12 12 12 12 13 13
3 4 4 4 3 2 4 4 4 5 5 5 6 6 4 3 4 6 10 11 10 7 7 9 10 11 12 12 12 13 13 14 14 13 13 13 13 13 13 13 12 12 12 12 11 11 11 12 12
3 4 4 2 1 1 2 2 3 4 3 5 7 6 4 3 8 11 11 10 10 6 7 9 11 11 12 12 12 12 13 13 13 13 12 12 12 12 12 12 12 12 11 11 10 10 10 11 11
4 4 4 2 1 0 0 2 4 6 5 6 7 6 3 3 8 9 10 9 9 8 6 9 12 12 12 12 12 12 12 12 12 12 12 12 11 11 12 12 11 11 11 10 9 9 10 10 11
4 4 3 3 2 1 1 2 4 5 5 3 6 6 4 3 6 8 9 9 8 7 6 6 8 10 12 12 12 12 11 11 11 11 11 11 11 11 11 10 11 10 10 10 9 9 9 9 9
5 4 2 1 3 1 1 2 4 6 4 4 5 8 6 6 7 9 9 8 7 6 6 5 6 7 8 8 10 10 10 10 10 10 10 10 10 9 9 9 9 9 9 9 9 9 9 9 9
4 4 2 3 4 2 1 4 3 5 6 4 3 5 8 11 9 9 8 6 5 6 4 4 5 5 6 6 7 8 8 8 8 8 9 8 6 6 6 7 8 8 8 8 8 9 9 9 8
4 3 3 3 3 3 2 4 3 4 7 5 6 7 10 11 10 10 9 7 6 6 5 5 4 5 5 5 6 4 4 5 5 5 6 6 5 4 5 6 6 7 8 8 8 8 8 7 6
4 5 3 2 2 3 3 2 3 7 4 6 9 12 11 9 8 8 7 7 7 7 6 5 5 5 4 3 4 3 3 3 4 5 6 6 5 4 4 4 5 5 7 7 8 8 7 6 6
4 3 4 3 2 2 3 2 3 4 6 8 12 13 11 10 9 9 8 7 6 7 6 6 5 4 4 4 3 3 3 2 3 4 6 5 3 3 2 2 3 4 5 5 6 5 6 7 8
3 2 2 4 3 3 4 3 3 3 6 9 11 11 10 9 8 7 7 7 7 7 7 6 6 5 4 4 2 3 3 3 3 4 5 6 4 3 2 2 3 3 5 5 5 5 5 5 6
4 4 4 3 4 3 4 2 3 4 9 11 11 10 9 8 8 6 6 6 7 7 7 6 6 5 5 4 3 3 3 3 4 4 5 6 5 4 3 3 3 3 4 5 5 4 4 4 5
2 1 1 2 4 3 4 1 4 6 10 11 10 9 9 8 7 7 8 8 8 8 7 7 7 6 5 4 4 4 3 4 3 3 5 6 6 5 4 3 2 3 5 6 6 5 5 5 5
2 2 1 4 4 4 6 3 5 7 9 10 9 8 7 6 7 7 8 7 7 7 7 7 7 6 5 4 4 4 4 4 3 4 5 6 6 7 5 3 2 3 5 5 4 4 4 4 4
2 2 3 4 3 4 5 4 4 6 9 9 9 8 7 6 5 5 7 7 7 7 7 6 5 6 5 4 4 4 4 4 4 5 5 5 6 7 6 3 3 4 4 4 4 3 3 4 3
4 3 3 4 3 4 4 5 4 6 8 9 8 8 8 7 6 6 7 7 7 7 7 6 5 5 5 4 4 3 3 2 3 4 4 5 5 6 6 4 4 5 4 3 3 4 3 3 2
4 3 3 5 4 4 5 5 5 6 6 8 7 8 8 7 6 6 6 6 6 7 7 6 6 5 5 3 3 3 2 1 2 2 4 5 5 6 6 4 3 4 4 3 3 3 4 2 2
2 2 2 3 2 4 4 4 5 6 8 10 11 10 9 6 4 5 5 5 6 7 7 6 6 6 5 4 3 2 2 2 1 2 3 4 5 5 5 5 3 4 4 4 3 3 2 1 2
3 4 4 3 2 1 2 3 3 3 4 6 8 9 9 10 10 8 7 6 7 7 6 6 6 6 5 4 3 3 3 3 2 1 1 1 3 4 5 5 4 4 4 4 3 3 4 2 1
4 4 4 3 2 3 2 3 5 3 2 4 6 7 9 9 9 9 9 8 8 7 6 6 6 5 5 5 5 5 4 2 2 2 1 0 2 3 4 5 5 4 4 4 3 3 3 3 2
5 4 3 3 3 1 1 3 5 1 3 5 7 8 9 9 10 10 9 9 8 8 7 6 6 5 5 5 6 5 3 2 1 1 2 1 0 1 3 5 5 4 4 4 3 3 3 3 3
2 2 3 3 3 2 5 4 5 4 6 6 6 7 8 8 8 8 7 7 7 6 6 6 6 5 5 5 6 6 5 4 3 2 2 1 0 0 1 3 4 4 4 4 3 3 3 3 3
4 5 2 3 2 4 3 3 5 5 5 7 8 7 7 7 7 7 7 7 7 7 7 6 6 6 6 6 6 6 6 6 5 4 4 3 1 1 2 2 3 3 3 4 4 3 3 3 3
3 7 6 4 4 4 2 2 4 3 2 4 5 6 6 7 7 8 8 8 8 9 8 8 8 7 7 7 6 5 5 4 4 4 4 4 3 3 3 3 2 4 4 4 4 3 3 3 3
3 3 6 6 2 1 3 3 3 3 4 5 5 5 6 6 6 7 6 6 6 7 8 8 9 7 6 6 5 4 4 4 4 4 3 3 3 3 3 3 3 3 4 4 4 3 3 3 3
4 6 5 4 3 2 3 3 4 4 3 3 4 5 5 5 6 5 5 5 5 6 6 6 7 7 6 6 5 5 4 4 3 3 3 3 3 3 3 3 3 2 3 4 4 3 3 4 3
1 2 3 4 4 4 2 5 4 6 6 5 4 4 5 6 6 6 5 5 5 4 4 5 5 5 5 5 5 4 4 3 3 3 4 4 4 4 4 4 3 3 3 4 4 4 4 4 3
3 4 5 4 3 3 3 5 5 3 4 5 4 3 3 5 5 5 4 4 4 4 3 4 4 4 5 5 4 4 4 3 3 4 4 4 4 4 4 4 3 3 3 4 5 5 5 5 4
Wind_Direction
256 90 94 62 56 53 46 310 151 83 61 63 78 84 85 68 89 127 167 126 128 128 115 102 95 88 87 92 92 92 93 91 93 94 93 91 90 91 92 92 91 89 87 87 88 89 90 90 91
16 102 70 61 79 83 5 297 90 103 133 118 85 81 78 70 83 112 114 128 129 124 114 107 101 94 90 91 93 94 94 94 94 92 91 89 90 92 92 91 90 89 87 86 88 89 87 88 90
98 103 84 71 98 146 157 183 134 106 111 104 84 64 79 106 110 123 136 131 120 112 112 114 106 100 95 92 91 96 96 94 94 92 91 89 89 91 93 91 90 91 91 89 88 88 87 88 89
78 51 60 76 104 176 174 190 149 109 76 74 100 73 65 101 130 131 129 124 117 113 114 118 111 106 101 97 96 95 97 96 94 92 90 89 89 90 92 92 91 91 92 91 90 87 86 87 87
71 78 71 68 110 203 193 183 136 107 92 86 94 90 61 39 109 122 126 124 122 120 119 118 112 108 106 103 99 98 98 98 97 96 93 90 90 91 91 91 91 90 88 90 90 87 84 85 85
63 76 94 120 160 270 329 110 95 93 104 106 101 104 96 113 114 126 128 127 128 128 123 122 117 112 110 107 102 99 100 100 99 98 97 95 93 94 94 94 92 90 87 87 87 84 85 85 86
109 99 132 150 137 132 191 135 112 120 112 122 122 108 128 141 136 132 126 128 126 124 121 114 120 116 112 110 106 102 102 103 102 99 98 97 96 96 98 95 94 91 87 84 82 83 85 85 89
134 106 101 147 145 198 208 117 110 108 113 118 111 131 161 178 150 125 120 125 125 123 123 123 120 118 116 115 112 107 105 105 106 105 102 99 96 96 97 96 93 89 87 84 81 81 82 82 86
100 87 140 185 169 192 133 93 74 77 94 84 93 139 158 152 136 121 118 119 133 135 136 136 134 130 129 127 119 115 111 109 107 107 106 100 90 89 91 95 93 90 84 82 80 79 78 79 82
99 130 196 188 164 148 119 114 124 88 82 73 76 95 129 139 137 137 143 149 151 155 163 157 152 148 144 135 123 119 113 105 103 109 109 107 100 92 85 84 83 81 79 75 70 73 74 74 76
136 166 180 178 165 142 125 107 97 114 112 147 144 143 146 142 141 148 155 159 157 159 159 165 169 161 150 131 134 129 115 107 106 112 120 115 101 85 70 60 57 62 69 65 62 62 63 72 78
139 186 174 176 163 134 142 116 88 129 174 164 151 149 147 150 155 161 161 161 150 146 153 155 159 152 153 146 142 133 123 117 111 119 125 117 101 86 79 65 50 56 71 74 71 71 68 73 79
151 193 186 173 145 126 114 124 130 152 147 144 144 145 152 159 164 170 164 154 145 148 152 150 149 147 141 131 134 123 126 126 120 114 120 123 119 117 100 83 68 69 81 85 83 81 76 74 78
181 192 206 185 147 136 130 140 125 171 141 141 144 151 156 160 165 159 154 151 153 151 152 149 142 143 137 133 131 129 127 120 109 103 121 129 129 123 109 91 73 70 84 91 93 93 87 77 80
154 117 279 215 171 166 126 89 190 176 152 153 159 163 160 155 159 165 170 166 162 157 154 155 151 145 144 141 142 129 123 113 102 97 108 115 117 116 112 98 85 82 90 91 90 83 81 75 74
97 73 275 260 182 183 142 217 231 174 159 164 168 167 166 164 165 163 167 166 160 154 154 160 153 145 142 140 130 126 119 108 103 106 102 108 109 109 106 99 92 98 90 90 87 84 82 73 70
66 165 227 270 207 174 157 211 226 174 164 168 169 171 170 169 164 160 165 163 160 156 156 150 139 141 141 130 117 118 112 105 105 108 103 106 105 108 110 110 107 103 93 85 96 84 99 92 74
197 199 219 234 224 164 177 217 212 185 170 168 166 168 166 171 178 167 157 156 156 153 148 141 131 131 129 114 98 93 90 98 100 102 109 112 106 107 104 103 101 100 91 82 94 98 85 94 96
184 192 233 240 215 166 196 217 220 203 180 170 171 177 178 188 186 164 160 153 146 141 136 130 129 132 126 119 125 124 128 131 107 112 119 119 118 116 110 108 104 101 103 106 109 107 90 72 87
194 191 244 270 231 172 198 234 232 205 195 185 184 184 185 187 183 171 152 145 149 151 149 141 139 141 136 141 152 154 148 147 133 107 110 122 126 134 133 129 124 116 109 102 101 106 100 83 80
233 197 209 217 312 27 130 310 286 243 201 188 186 184 181 183 184 178 161 157 154 154 159 155 153 150 143 134 120 99 76 62 51 57 95 140 139 144 141 140 132 128 124 128 128 129 125 132 57
247 233 199 196 148 266 166 238 269 244 182 190 189 185 186 185 180 178 166 163 166 166 159 155 156 148 145 138 137 139 138 149 191 185 189 209 147 142 149 147 141 139 135 137 146 136 135 137 143
223 226 202 209 173 270 279 183 272 246 206 213 200 190 188 184 177 177 173 171 169 164 162 164 162 156 156 150 147 146 143 158 157 133 129 112 89 133 162 154 146 148 147 153 147 137 137 149 157
172 54 28 46 89 244 232 183 264 230 208 203 201 194 185 179 175 173 173 166 165 163 165 167 164 165 164 154 152 153 154 156 145 153 165 169 135 70 131 148 150 156 158 163 167 163 158 162 153
93 91 35 357 354 255 247 178 254 248 206 188 182 182 174 165 165 167 169 173 172 168 171 169 165 170 173 165 168 171 170 166 171 179 181 176 180 214 198 153 167 172 178 178 169 157 163 166 159
191 145 160 195 219 279 322 221 271 291 149 135 138 149 149 157 166 174 178 179 179 177 173 171 175 177 177 176 181 181 180 177 184 188 186 186 193 202 197 171 175 182 178 177 165 157 171 159 158
157 178 172 148 177 258 281 295 327 30 82 105 120 122 145 166 171 178 177 177 178 180 180 175 173 172 179 184 181 182 185 184 190 194 188 185 190 195 188 182 181 190 181 176 167 167 175 159 160
168 153 101 126 165 239 279 256 232 216 188 156 149 156 169 172 169 171 176 180 181 182 180 170 171 177 180 180 183 186 190 191 186 171 184 190 192 185 188 195 187 196 196 182 168 176 170 152 162
135 121 126 144 160 165 229 264 240 204 188 176 184 185 179 173 170 174 179 183 180 176 166 164 168 171 177 181 183 182 192 193 179 183 197 194 190 185 186 191 187 188 193 185 174 181 170 162 168
178 179 150 162 212 171 178 261 289 205 179 172 183 192 190 178 174 167 166 164 163 166 168 171 170 170 181 181 179 185 185 178 179 191 197 186 179 186 186 181 180 189 191 185 180 182 176 171 175
Height
1497 1497 1497 1498 1501 1511 1514 1508 1501 1499 1499 1500 1499 1500 1504 1508 1512 1519 1516 1514 1514 1514 1513 1512 1512 1510 1509 1509 1508 1508 1507 1506 1505 1506 1507 1508 1509 1509 1510 1511 1511 1511 1511 1512 1512 1512 1513 1513 1514
1497 1497 1498 1499 1508 1520 1516 1506 1502 1499 1500 1500 1501 1504 1506 1509 1511 1513 1514 1515 1515 1514 1514 1513 1513 1512 1511 1510 1510 1509 1509 1509 1508 1508 1509 1510 1510 1511 1511 1512 1512 1512 1513 1513 1513 1514 1514 1515 1515
1497 1497 1499 1502 1511 1518 1514 1504 1501 1499 1499 1499 1503 1506 1508 1511 1513 1514 1514 1515 1516 1515 1515 1514 1514 1513 1513 1512 1511 1511 1511 1511 1510 1511 1511 1511 1512 1512 1513 1513 1513 1514 1514 1515 1515 1515 1516 1516 1517
1497 1498 1500 1507 1512 1508 1505 1501 1499 1500 1500 1501 1503 1508 1511 1513 1513 1514 1515 1516 1516 1516 1516 1515 1515 1515 1514 1513 1513 1513 1512 1512 1512 1512 1513 1513 1513 1514 1514 1514 1515 1515 1516 1516 1516 1517 1517 1518 1518
1497 1498 1506 1513 1510 1505 1501 1499 1499 1500 1501 1503 1504 1510 1513 1515 1514 1515 1516 1517 1517 1517 1517 1516 1516 1516 1515 1515 1515 1515 1514 1514 1514 1514 1514 1514 1515 1515 1515 1516 1516 1516 1517 1517 1518 1518 1518 1519 1519
1497 1499 1513 1517 1510 1503 1501 1499 1500 1501 1503 1505 1506 1511 1515 1516 1516 1517 1518 1518 1518 1518 1518 1518 1517 1517 1517 1516 1516 1516 1516 1516 1516 1516 1516 1516 1516 1517 1517 1517 1517 1518 1518 1518 1519 1519 1519 1520 1520
1498 1503 1511 1511 1510 1505 1501 1500 1500 1502 1503 1505 1506 1511 1515 1517 1517 1518 1519 1519 1519 1519 1519 1519 1519 1518 1518 1518 1518 1518 1518 1518 1518 1518 1518 1518 1518 1518 1518 1519 1519 1519 1519 1519 1520 1520 1520 1521 1521
1496 1502 1509 1510 1509 1506 1500 1500 1500 1502 1504 1506 1506 1509 1513 1516 1517 1518 1519 1520 1520 1520 1520 1520 1520 1520 1520 1520 1519 1519 1519 1519 1519 1519 1519 1520 1520 1520 1520 1520 1520 1520 1520 1521 1521 1521 1521 1521 1522
1496 1506 1512 1508 1506 1504 1500 1500 1502 1502 1503 1505 1506 1508 1510 1514 1517 1518 1519 1520 1521 1521 1521 1522 1521 1521 1521 1521 1521 1521 1521 1521 1521 1521 1521 1521 1521 1521 1521 1522 1522 1522 1522 1522 1522 1522 1522 1522 1523
1496 1508 1505 1500 1500 1500 1500 1500 1501 1503 1505 1507 1508 1509 1511 1514 1516 1517 1518 1519 1520 1521 1522 1522 1522 1523 1523 1522 1522 1522 1523 1523 1523 1523 1523 1523 1523 1523 1523 1523 1523 1523 1523 1523 1523 1523 1523 1523 1523
1496 1501 1499 1498 1498 1499 1500 1501 1501 1503 1506 1507 1508 1510 1512 1514 1516 1518 1519 1519 1520 1522 1522 1523 1523 1523 1523 1524 1524 1524 1524 1524 1524 1524 1524 1524 1524 1524 1525 1525 1525 1525 1525 1524 1524 1524 1524 1524 1524
1496 1496 1497 1497 1498 1499 1500 1501 1502 1502 1504 1506 1507 1509 1512 1514 1515 1517 1518 1520 1521 1522 1522 1523 1523 1524 1524 1525 1525 1525 1525 1525 1525 1525 1525 1525 1525 1525 1526 1526 1526 1526 1526 1526 1526 1526 1526 1526 1526
1496 1496 1496 1496 1497 1498 1499 1501 1502 1503 1504 1506 1508 1509 1512 1513 1515 1517 1518 1519 1520 1521 1522 1523 1524 1524 1525 1525 1526 1526 1526 1526 1526 1526 1526 1526 1526 1526 1526 1527 1527 1527 1527 1527 1527 1527 1527 1527 1527
1495 1495 1496 1496 1497 1498 1500 1501 1502 1504 1504 1506 1507 1509 1511 1513 1515 1516 1518 1519 1520 1521 1522 1523 1524 1525 1525 1525 1526 1526 1527 1527 1527 1527 1527 1527 1527 1527 1527 1527 1527 1527 1528 1527 1528 1528 1527 1528 1528
1494 1496 1497 1496 1496 1498 1500 1504 1502 1503 1504 1505 1507 1508 1510 1512 1513 1515 1517 1518 1519 1520 1522 1523 1524 1524 1525 1526 1526 1526 1527 1528 1528 1528 1528 1528 1528 1528 1528 1528 1528 1528 1528 1528 1528 1528 1528 1528 1529
1495 1501 1506 1498 1496 1497 1502 1510 1502 1502 1503 1505 1506 1507 1509 1511 1512 1514 1516 1517 1518 1519 1521 1522 1523 1524 1525 1525 1526 1526 1527 1528 1528 1529 1529 1529 1528 1528 1528 1528 1528 1528 1528 1528 1528 1529 1529 1529 1529
1502 1509 1508 1501 1495 1496 1500 1506 1500 1500 1501 1503 1505 1506 1508 1509 1511 1512 1514 1516 1517 1519 1520 1522 1523 1524 1525 1525 1526 1527 1527 1528 1528 1528 1529 1529 1529 1529 1529 1529 1528 1529 1529 1529 1528 1529 1529 1529 1529
1508 1507 1505 1503 1496 1496 1500 1502 1499 1499 1500 1502 1504 1505 1506 1508 1509 1510 1512 1514 1516 1517 1519 1521 1522 1523 1524 1525 1526 1526 1527 1527 1528 1528 1528 1528 1529 1529 1529 1529 1529 1529 1529 1529 1529 1529 1529 1529 1529
1498 1502 1504 1500 1493 1496 1500 1501 1499 1498 1499 1500 1502 1503 1504 1506 1508 1509 1511 1513 1514 1516 1518 1519 1521 1522 1523 1524 1524 1525 1526 1527 1527 1528 1528 1529 1529 1529 1529 1529 1529 1528 1528 1528 1529 1529 1529 1529 1529
1496 1502 1503 1498 1492 1496 1500 1500 1497 1496 1497 1497 1498 1501 1502 1504 1506 1508 1510 1511 1513 1514 1516 1518 1519 1521 1522 1523 1524 1525 1525 1526 1527 1527 1528 1528 1528 1528 1528 1528 1528 1528 1528 1528 1528 1528 1528 1529 1529
1497 1500 1500 1500 1495 1494 1500 1505 1500 1496 1495 1496 1497 1498 1500 1501 1503 1505 1507 1509 1511 1513 1515 1516 1518 1520 1521 1522 1523 1524 1525 1525 1526 1526 1527 1527 1528 1528 1528 1527 1527 1527 1527 1527 1527 1528 1528 1528 1529
1499 1491 1493 1495 1503 1509 1504 1518 1504 1497 1496 1495 1495 1496 1497 1499 1500 1502 1504 1507 1509 1511 1513 1515 1517 1518 1520 1521 1522 1522 1523 1523 1524 1525 1526 1526 1526 1526 1527 1527 1527 1527 1527 1527 1527 1527 1527 1528 1527
1492 1488 1491 1494 1501 1508 1506 1513 1508 1498 1498 1495 1493 1493 1494 1496 1497 1499 1502 1504 1507 1509 1511 1513 1515 1517 1518 1520 1521 1521 1522 1522 1523 1524 1524 1525 1525 1525 1525 1525 1526 1526 1526 1526 1526 1526 1527 1527 1527
1486 1491 1495 1501 1507 1517 1508 1512 1510 1500 1494 1491 1491 1491 1492 1494 1496 1498 1500 1503 1505 1507 1509 1511 1513 1514 1516 1517 1519 1520 1520 1521 1521 1522 1522 1523 1523 1524 1524 1524 1524 1524 1525 1525 1525 1525 1526 1526 1526
1489 1504 1518 1519 1524 1520 1505 1507 1506 1491 1487 1486 1487 1489 1490 1493 1495 1497 1499 1501 1503 1505 1507 1509 1510 1512 1514 1515 1517 1518 1518 1519 1519 1520 1520 1521 1521 1522 1522 1522 1522 1523 1523 1524 1524 1524 1524 1525 1525
1490 1500 1518 1525 1527 1520 1507 1508 1500 1488 1485 1485 1486 1487 1489 1491 1493 1495 1496 1498 1500 1503 1505 1506 1507 1509 1511 1513 1514 1515 1516 1517 1517 1518 1518 1519 1519 1520 1520 1520 1521 1521 1521 1522 1522 1522 1523 1523 1524
1491 1498 1498 1512 1515 1520 1515 1505 1495 1488 1487 1486 1487 1488 1489 1491 1492 1493 1494 1496 1498 1500 1502 1503 1504 1506 1508 1510 1512 1513 1514 1515 1515 1516 1516 1516 1517 1517 1518 1519 1519 1519 1519 1520 1520 1521 1521 1521 1522
1485 1490 1502 1510 1519 1525 1516 1510 1506 1494 1491 1489 1488 1488 1489 1490 1491 1492 1492 1494 1496 1498 1500 1501 1502 1504 1505 1507 1509 1510 1511 1512 1513 1513 1513 1514 1514 1515 1515 1516 1516 1517 1517 1518 1518 1519 1519 1519 1520
1488 1491 1498 1507 1511 1521 1523 1515 1491 1489 1488 1488 1488 1488 1488 1489 1490 1490 1491 1493 1494 1496 1497 1499 1500 1501 1503 1504 1506 1507 1508 1509 1510 1510 1511 1511 1511 1512 1512 1513 1513 1514 1514 1515 1515 1516 1517 1517 1518
1486 1490 1497 1508 1510 1512 1518 1513 1486 1485 1485 1485 1487 1488 1488 1488 1489 1490 1490 1491 1492 1494 1495 1496 1498 1499 1500 1502 1503 1504 1505 1506 1507 1507 1508 1508 1508 1509 1509 1510 1511 1511 1511 1512 1512 1513 1514 1515 1515